Weather History for EIDW - October, 2012

Change the Weather History Date:

Monday, October 1, 2012

  Actual Average Record
Temperature  
Mean Temperature 52 °F -  
Max Temperature 57 °F 57 °F 66 °F (1997)
Min Temperature 48 °F 46 °F 39 °F (2014)
Degree Days  
Heating Degree Days 12    
Growing Degree Days 2 (Base 50)    
Moisture  
Dew Point 47 °F    
Average Humidity 83    
Maximum Humidity 94    
Minimum Humidity 55    
Precipitation  
Precipitation 0.04 in 0.09 in - ()
Sea Level Pressure  
Sea Level Pressure 29.70 in    
Wind  
Wind Speed 13 mph ()    
Max Wind Speed 25 mph    
Max Gust Speed 37 mph    
Visibility 7.0 miles    
Events Rain    
Averages and records for this station are not official NWS values.
T = Trace of Precipitation, MM = Missing Value Source: Averaged Metar Reports

Daily Weather History Graph

Daily Weather History Graph

Search for Another Location

Airport or City:

Trip Planner

Search our weather history database for the weather conditions in past years. The results will help you decide how hot, cold, wet, or windy it might be!

Date:

Astronomy

Oct. 01, 2012 Rise Set
Actual Time 7:27 AM IST 7:01 PM IST
Civil Twilight 6:52 AM IST 7:35 PM IST
Nautical Twilight 6:11 AM IST 8:16 PM IST
Astronomical Twilight 5:30 AM IST 8:57 PM IST
Moon 7:08 PM IST (10/1) 9:02 AM IST (10/1)
Length of Visible Light 12h 43m
Length of Day
11h 33m
Full, 98% of the Moon is Illuminated
Oct 1
Full
Oct 8
Last Quarter
Oct 15
New
Oct 22
First Quarter
Oct 29
Full

Hourly Weather History & Observations

Time (IST) Temp. Dew Point Humidity Pressure Visibility Wind Dir Wind Speed Gust Speed Precip Events Conditions
12:00 AM 51.8 °F 48.2 °F 88% 29.77 in 6.2 mi SW 9.2 mph - N/A   Scattered Clouds
12:30 AM 51.8 °F 48.2 °F 88% 29.77 in 6.2 mi WSW 13.8 mph - N/A Rain Light Rain Showers
1:00 AM 50 °F 47 °F 88% 29.78 in 12 mi WSW 15.7 mph - - Rain Light Rain Showers
1:00 AM 50.0 °F 48.2 °F 94% 29.77 in 6.2 mi WSW 16.1 mph - N/A   Mostly Cloudy
1:30 AM 50.0 °F 48.2 °F 94% 29.77 in 6.2 mi WSW 13.8 mph - N/A   Mostly Cloudy
2:00 AM 50.0 °F 48.2 °F 94% 29.77 in 6.2 mi SW 10.4 mph - N/A   Scattered Clouds
2:30 AM 50.0 °F 46.4 °F 87% 29.77 in 6.2 mi SW 10.4 mph - N/A   Scattered Clouds
3:00 AM 50.0 °F 48.2 °F 94% 29.77 in 6.2 mi SW 11.5 mph - N/A   Scattered Clouds
3:30 AM 50.0 °F 48.2 °F 94% 29.74 in 6.2 mi SW 10.4 mph - N/A   Scattered Clouds
4:00 AM 50.0 °F 48.2 °F 94% 29.74 in 6.2 mi SW 11.5 mph - N/A   Scattered Clouds
4:30 AM 51.8 °F 48.2 °F 88% 29.74 in 6.2 mi SW 11.5 mph - N/A Rain Light Rain Showers
5:00 AM 51.8 °F 48.2 °F 88% 29.74 in 6.2 mi SW 10.4 mph - N/A   Mostly Cloudy
5:30 AM 50.0 °F 48.2 °F 94% 29.74 in 6.2 mi SW 10.4 mph - N/A   Mostly Cloudy
6:00 AM 50.0 °F 48.2 °F 94% 29.74 in 6.2 mi SW 12.7 mph - N/A Rain Light Rain Showers
6:30 AM 50.0 °F 48.2 °F 94% 29.71 in 6.2 mi WSW 12.7 mph - N/A   Mostly Cloudy
7:00 AM 48 °F 47 °F 93% 29.74 in 19 mi SW 6.7 mph - - Rain Light Rain Showers
7:00 AM 48.2 °F 46.4 °F 93% 29.71 in 6.2 mi SW 6.9 mph - N/A   Scattered Clouds
7:30 AM 48.2 °F 46.4 °F 93% 29.71 in 6.2 mi SW 8.1 mph - N/A   Scattered Clouds
8:00 AM 50.0 °F 46.4 °F 87% 29.71 in 6.2 mi SW 10.4 mph - N/A   Mostly Cloudy
8:30 AM 50.0 °F 46.4 °F 87% 29.71 in 6.2 mi SW 11.5 mph - N/A   Mostly Cloudy
9:00 AM 51.8 °F 48.2 °F 88% 29.71 in 6.2 mi SW 13.8 mph - N/A   Mostly Cloudy
9:30 AM 51.8 °F 48.2 °F 88% 29.71 in 6.2 mi SW 13.8 mph - N/A   Mostly Cloudy
10:00 AM 51.8 °F 48.2 °F 88% 29.71 in 6.2 mi SW 13.8 mph - N/A Rain Rain Showers
10:30 AM 53.6 °F 48.2 °F 82% 29.71 in 6.2 mi SW 11.5 mph - N/A   Mostly Cloudy
11:00 AM 53.6 °F 46.4 °F 77% 29.71 in 6.2 mi SW 12.7 mph - N/A   Mostly Cloudy
11:30 AM 53.6 °F 46.4 °F 77% 29.68 in 6.2 mi SW 16.1 mph - N/A   Mostly Cloudy
12:00 PM 55.4 °F 46.4 °F 72% 29.68 in 6.2 mi WSW 16.1 mph - N/A   Mostly Cloudy
12:30 PM 55.4 °F 46.4 °F 72% 29.68 in 6.2 mi WSW 16.1 mph - N/A   Mostly Cloudy
1:00 PM 56 °F 44 °F 55% 29.68 in 19 mi SW 20.1 mph - -   Partly Cloudy
1:00 PM 55.4 °F 46.4 °F 72% 29.68 in 6.2 mi SW 17.3 mph - N/A   Scattered Clouds
1:30 PM 55.4 °F 44.6 °F 67% 29.68 in 6.2 mi SW 17.3 mph - N/A   Scattered Clouds
2:00 PM 53.6 °F 46.4 °F 77% 29.65 in 6.2 mi SW 20.7 mph - N/A   Scattered Clouds
2:30 PM 55.4 °F 46.4 °F 72% 29.65 in 6.2 mi SW 19.6 mph - N/A   Scattered Clouds
3:00 PM 57.2 °F 46.4 °F 67% 29.65 in 6.2 mi SW 15.0 mph - N/A   Scattered Clouds
3:30 PM 57.2 °F 46.4 °F 67% 29.65 in 6.2 mi SW 17.3 mph - N/A   Scattered Clouds
4:00 PM 50.0 °F 46.4 °F 87% 29.65 in 6.2 mi West 18.4 mph 34.5 mph N/A Rain Light Rain Showers
4:30 PM 51.8 °F 46.4 °F 82% 29.65 in 6.2 mi SW 16.1 mph - N/A   Scattered Clouds
5:00 PM 53.6 °F 48.2 °F 82% 29.62 in 6.2 mi WSW 16.1 mph - N/A   Partly Cloudy
5:30 PM 53.6 °F 46.4 °F 77% 29.65 in 6.2 mi WSW 15.0 mph - N/A   Scattered Clouds
6:00 PM 51.8 °F 46.4 °F 82% 29.65 in 6.2 mi WSW 23.0 mph 36.8 mph N/A   Scattered Clouds
6:30 PM 51.8 °F 44.6 °F 76% 29.65 in 6.2 mi West 23.0 mph - N/A   Scattered Clouds
7:00 PM 51 °F 45 °F 74% 29.67 in 19 mi WSW 24.6 mph - - Rain Light Rain Showers
7:00 PM 51.8 °F 44.6 °F 76% 29.65 in 6.2 mi WSW 24.2 mph - N/A   Scattered Clouds
7:30 PM 51.8 °F 46.4 °F 82% 29.65 in 6.2 mi WSW 18.4 mph - N/A   Scattered Clouds
8:00 PM 51.8 °F 44.6 °F 76% 29.68 in 6.2 mi WSW 18.4 mph - N/A   Scattered Clouds
8:30 PM 51.8 °F 44.6 °F 76% 29.68 in 6.2 mi WSW 17.3 mph - N/A   Scattered Clouds
9:00 PM 50.0 °F 44.6 °F 82% 29.68 in 6.2 mi WSW 13.8 mph - N/A   Scattered Clouds
9:30 PM 50.0 °F 44.6 °F 82% 29.68 in 6.2 mi WSW 13.8 mph - N/A   Scattered Clouds
10:00 PM 50.0 °F 44.6 °F 82% 29.68 in 6.2 mi SW 10.4 mph - N/A   Scattered Clouds
10:30 PM 50.0 °F 44.6 °F 82% 29.68 in 6.2 mi SW 12.7 mph - N/A   Scattered Clouds
11:00 PM 50.0 °F 42.8 °F 76% 29.71 in 6.2 mi SW 15.0 mph - N/A   Partly Cloudy
11:30 PM 50.0 °F 42.8 °F 76% 29.68 in 6.2 mi SW 12.7 mph - N/A   Partly Cloudy